TimeAKST,TemperatureF,Dew PointF,Humidity,Sea Level PressureIn,VisibilityMPH,Wind Direction,Wind SpeedMPH,Gust SpeedMPH,PrecipitationIn,Events,Conditions,WindDirDegrees,DateUTC
12:16 AM,15.8,10.4,79,29.83,10.0,ENE,8.1,-,N/A,,Overcast,60,2013-01-30 09:16:00
12:36 AM,15.8,10.4,79,29.83,10.0,ENE,6.9,-,N/A,,Overcast,60,2013-01-30 09:36:00
12:56 AM,15.8,10.4,79,29.83,10.0,ENE,6.9,-,N/A,,Overcast,60,2013-01-30 09:56:00
1:16 AM,15.8,12.2,86,29.82,10.0,NE,8.1,-,N/A,,Overcast,50,2013-01-30 10:16:00
1:36 AM,15.8,10.4,79,29.82,10.0,ENE,8.1,-,N/A,,Overcast,60,2013-01-30 10:36:00
1:56 AM,15.8,12.2,86,29.82,10.0,ENE,6.9,-,N/A,,Overcast,60,2013-01-30 10:56:00
2:16 AM,15.8,12.2,86,29.82,10.0,NE,10.4,-,N/A,,Overcast,50,2013-01-30 11:16:00
2:36 AM,15.8,12.2,86,29.82,10.0,ENE,9.2,-,N/A,,Overcast,60,2013-01-30 11:36:00
2:56 AM,15.8,12.2,86,29.82,10.0,ENE,5.8,-,N/A,,Overcast,60,2013-01-30 11:56:00
3:36 AM,17.6,12.2,79,29.80,10.0,ENE,6.9,-,N/A,,Overcast,60,2013-01-30 12:36:00
3:56 AM,17.6,14.0,86,29.80,3.0,NE,5.8,-,N/A,,Scattered Clouds,50,2013-01-30 12:56:00
4:16 AM,17.6,14.0,86,29.79,2.5,ENE,8.1,-,N/A,,Clear,60,2013-01-30 13:16:00
4:36 AM,17.6,14.0,86,29.79,1.0,NE,5.8,-,N/A,,Clear,40,2013-01-30 13:36:00
4:56 AM,17.6,15.8,93,29.79,0.8,NE,6.9,-,0.01,,Unknown,50,2013-01-30 13:56:00
5:16 AM,17.6,15.8,93,29.78,1.0,ENE,6.9,-,N/A,,Clear,60,2013-01-30 14:16:00
5:36 AM,17.6,15.8,93,29.78,1.5,NE,5.8,-,0.01,,Clear,50,2013-01-30 14:36:00
5:56 AM,17.6,15.8,93,29.77,1.2,NE,5.8,-,0.01,,Clear,40,2013-01-30 14:56:00
6:16 AM,17.6,15.8,93,29.76,2.0,NE,6.9,-,0.01,,Clear,50,2013-01-30 15:16:00
6:36 AM,19.4,15.8,86,29.75,5.0,NE,3.5,-,0.01,,Scattered Clouds,50,2013-01-30 15:36:00
6:56 AM,19.4,15.8,86,29.75,10.0,NE,6.9,-,0.01,,Overcast,50,2013-01-30 15:56:00
7:16 AM,19.4,17.6,93,29.74,10.0,ENE,9.2,-,N/A,,Overcast,60,2013-01-30 16:16:00
7:36 AM,19.4,17.6,93,29.74,10.0,NE,6.9,-,N/A,,Overcast,50,2013-01-30 16:36:00
7:56 AM,19.4,17.6,93,29.73,10.0,ENE,6.9,-,N/A,,Overcast,60,2013-01-30 16:56:00
8:16 AM,19.4,15.8,86,29.71,10.0,ENE,8.1,-,N/A,,Overcast,60,2013-01-30 17:16:00
8:36 AM,19.4,17.6,93,29.71,10.0,NE,6.9,-,N/A,,Overcast,50,2013-01-30 17:36:00
8:56 AM,19.4,17.6,93,29.71,10.0,NE,5.8,-,N/A,,Overcast,50,2013-01-30 17:56:00
9:16 AM,19.4,17.6,93,29.71,10.0,NE,8.1,-,N/A,,Overcast,50,2013-01-30 18:16:00
9:36 AM,19.4,17.6,93,29.69,10.0,ENE,6.9,-,N/A,,Overcast,60,2013-01-30 18:36:00
9:56 AM,19.4,17.6,93,29.68,10.0,ENE,9.2,-,N/A,,Overcast,60,2013-01-30 18:56:00
10:16 AM,21.2,17.6,86,29.68,10.0,ENE,4.6,-,N/A,,Mostly Cloudy,60,2013-01-30 19:16:00
10:36 AM,21.2,17.6,86,29.68,10.0,ENE,4.6,-,N/A,,Mostly Cloudy,60,2013-01-30 19:36:00
10:56 AM,21.2,19.4,93,29.68,10.0,ENE,4.6,-,N/A,,Partly Cloudy,70,2013-01-30 19:56:00
11:16 AM,21.2,19.4,93,29.68,10.0,NE,3.5,-,N/A,,Scattered Clouds,50,2013-01-30 20:16:00
11:36 AM,21.2,19.4,93,29.66,10.0,ENE,6.9,-,N/A,,Mostly Cloudy,60,2013-01-30 20:36:00
11:56 AM,23.0,19.4,86,29.66,10.0,ENE,5.8,-,N/A,,Overcast,60,2013-01-30 20:56:00
12:16 PM,23.0,19.4,86,29.66,10.0,NE,3.5,-,N/A,,Overcast,40,2013-01-30 21:16:00
12:36 PM,23.0,19.4,86,29.65,10.0,Calm,Calm,-,N/A,,Overcast,0,2013-01-30 21:36:00
12:56 PM,24.8,21.2,86,29.64,10.0,ESE,3.5,-,N/A,,Overcast,120,2013-01-30 21:56:00
1:16 PM,24.8,21.2,86,29.64,10.0,NE,3.5,-,N/A,,Overcast,40,2013-01-30 22:16:00
1:36 PM,24.8,21.2,86,29.64,10.0,NW,4.6,-,N/A,,Overcast,320,2013-01-30 22:36:00
1:56 PM,26.6,23.0,86,29.64,10.0,NNW,3.5,-,N/A,,Overcast,330,2013-01-30 22:56:00
2:16 PM,26.6,23.0,86,29.64,10.0,WNW,5.8,-,N/A,,Overcast,300,2013-01-30 23:16:00
2:36 PM,26.6,24.8,93,29.63,10.0,Calm,Calm,-,N/A,,Overcast,0,2013-01-30 23:36:00
2:56 PM,26.6,24.8,93,29.63,10.0,Calm,Calm,-,N/A,,Overcast,0,2013-01-30 23:56:00
3:16 PM,26.6,24.8,93,29.63,10.0,Calm,Calm,-,N/A,,Overcast,0,2013-01-31 00:16:00
3:36 PM,26.6,24.8,93,29.64,10.0,Calm,Calm,-,N/A,,Overcast,0,2013-01-31 00:36:00
3:56 PM,28.4,24.8,86,29.64,10.0,Calm,Calm,-,N/A,,Overcast,0,2013-01-31 00:56:00
4:16 PM,28.4,24.8,86,29.64,10.0,Calm,Calm,-,N/A,,Overcast,0,2013-01-31 01:16:00
4:36 PM,28.4,26.6,93,29.64,10.0,Calm,Calm,-,N/A,,Overcast,0,2013-01-31 01:36:00
4:56 PM,28.4,24.8,86,29.64,10.0,Calm,Calm,-,N/A,,Overcast,0,2013-01-31 01:56:00
5:16 PM,28.4,24.8,86,29.64,10.0,Calm,Calm,-,N/A,,Overcast,0,2013-01-31 02:16:00
5:36 PM,28.4,26.6,93,29.65,2.0,NNW,3.5,-,N/A,,Scattered Clouds,330,2013-01-31 02:36:00
5:56 PM,28.4,26.6,93,29.65,1.2,Calm,Calm,-,0.01,,Clear,0,2013-01-31 02:56:00
6:16 PM,28.4,26.6,93,29.65,1.8,Calm,Calm,-,0.01,,Unknown,0,2013-01-31 03:16:00
6:36 PM,28.4,26.6,93,29.65,1.5,NNE,3.5,-,0.03,,Unknown,20,2013-01-31 03:36:00
6:56 PM,28.4,26.6,93,29.65,1.8,Calm,Calm,-,0.04,,Clear,0,2013-01-31 03:56:00
7:16 PM,28.4,26.6,93,29.65,1.5,Calm,Calm,-,0.01,,Clear,0,2013-01-31 04:16:00
7:36 PM,28.4,26.6,93,29.66,2.5,East,3.5,-,0.01,,Partly Cloudy,80,2013-01-31 04:36:00
7:56 PM,28.4,26.6,93,29.65,3.0,East,3.5,-,0.02,,Partly Cloudy,80,2013-01-31 04:56:00
8:16 PM,28.4,26.6,93,29.66,7.0,East,3.5,-,N/A,,Partly Cloudy,100,2013-01-31 05:16:00
8:36 PM,28.4,28.4,100,29.66,7.0,East,4.6,-,N/A,,Partly Cloudy,100,2013-01-31 05:36:00
8:56 PM,28.4,28.4,100,29.66,10.0,ESE,4.6,-,N/A,,Partly Cloudy,110,2013-01-31 05:56:00
9:16 PM,28.4,28.4,100,29.66,10.0,East,5.8,-,N/A,,Mostly Cloudy,80,2013-01-31 06:16:00
9:36 PM,28.4,28.4,100,29.66,10.0,East,5.8,-,N/A,,Overcast,90,2013-01-31 06:36:00
9:56 PM,28.4,28.4,100,29.66,10.0,East,4.6,-,N/A,,Overcast,90,2013-01-31 06:56:00
10:16 PM,28.4,28.4,100,29.66,10.0,East,3.5,-,N/A,,Overcast,100,2013-01-31 07:16:00
10:36 PM,28.4,28.4,100,29.66,10.0,East,3.5,-,N/A,,Overcast,90,2013-01-31 07:36:00
10:56 PM,28.4,28.4,100,29.66,10.0,ESE,3.5,-,N/A,,Overcast,110,2013-01-31 07:56:00
11:16 PM,28.4,28.4,100,29.67,10.0,Calm,Calm,-,N/A,,Overcast,0,2013-01-31 08:16:00
11:36 PM,28.4,28.4,100,29.67,10.0,Calm,Calm,-,N/A,,Overcast,0,2013-01-31 08:36:00
11:56 PM,28.4,28.4,100,29.68,10.0,Calm,Calm,-,N/A,,Mostly Cloudy,0,2013-01-31 08:56:00